User: anonymous   Login
Location: Great Malvern
(52.1167°N, 2.3167°W)
Time: 06:39:15
(UTC+00:00)
Language:

Cosmos 2098 Rocket - Orbit

View from above orbital plane
View from above orbital plane
View from above satellite
View from above satellite

Ground track
Ground track

The orbit data is extracted from the following two-line orbital elements,

1 20775U 90078B   20336.42422169 +.00002761 +00000-0 +13152-3 0  9990
2 20775 082.9273 088.8942 0571886 037.3433 326.6105 14.35007600529680
Epoch (UTC): 01 December 2020 10:10:52
Eccentricity: 0.0571886
inclination: 82.9273°
perigee height: 366 km
apogee height: 1184 km
right ascension of ascending node: 88.8942°
argument of perigee: 37.3433°
revolutions per day: 14.35007600
mean anomaly at epoch: 326.6105°
orbit number at epoch: 52968

The dashed part of the orbit path shows where the satellite is in the earth's shadow,  

DLR